Date,TemperatureHighF,TemperatureAvgF,TemperatureLowF,DewpointHighF,DewpointAvgF,DewpointLowF,HumidityHigh,HumidityAvg,HumidityLow,PressureMaxIn,PressureMinIn,WindSpeedMaxMPH,WindSpeedAvgMPH,GustSpeedMaxMPH,PrecipitationSumIn
2013-10-1,89.7,75.3,61.1,70.0,64.6,58.0,97,72,44,29.82,29.72,9,2,12,0.00
2013-10-2,89.4,79.0,70.6,73.0,69.2,66.0,96,74,47,29.85,29.73,9,3,14,0.00
2013-10-3,90.3,80.4,71.9,71.0,68.0,65.0,87,68,46,29.82,29.70,12,4,16,0.00
2013-10-4,89.7,79.8,72.8,70.0,68.2,66.0,85,69,51,29.80,29.70,16,5,18,0.00
2013-10-5,80.6,71.0,55.8,71.0,59.8,44.0,85,69,51,30.04,29.76,14,4,18,0.13
2013-10-6,78.8,62.4,48.8,51.0,44.3,36.0,89,58,22,30.11,30.01,10,2,15,0.13
2013-10-7,85.4,64.5,46.5,53.0,44.3,40.0,83,53,21,30.12,29.98,7,0,9,0.00
2013-10-8,84.7,66.9,47.3,52.0,47.5,45.0,90,55,26,30.02,29.88,8,1,12,0.00
2013-10-9,83.6,70.1,52.6,60.0,53.9,47.0,88,59,36,29.97,29.84,8,3,14,0.00
2013-10-10,84.0,73.5,65.0,66.0,62.2,57.0,88,69,48,29.93,29.77,11,4,19,0.00
2013-10-11,84.6,77.7,71.8,70.0,67.9,64.0,82,72,57,29.83,29.73,10,3,17,0.00
2013-10-12,90.2,79.1,71.5,73.0,70.4,69.0,96,76,52,29.91,29.79,8,1,11,0.00
2013-10-13,75.9,69.6,65.4,70.0,67.2,64.0,96,92,80,30.07,29.91,8,2,14,0.45
2013-10-14,83.4,74.7,69.3,71.0,68.4,67.0,97,82,58,30.01,29.81,10,3,16,0.46
2013-10-15,76.2,68.2,53.2,70.0,64.1,51.0,94,87,75,29.98,29.81,8,2,15,0.14
2013-10-16,63.1,55.3,51.0,57.0,52.6,50.0,96,90,78,30.06,29.94,7,1,10,0.01
2013-10-17,73.0,59.0,46.1,52.0,49.3,45.0,96,73,42,30.10,29.91,7,1,9,0.01
2013-10-18,76.5,64.3,53.0,66.0,57.8,49.0,90,80,64,30.02,29.79,15,2,23,0.00
2013-10-19,65.9,53.2,43.0,49.0,42.8,40.0,90,70,41,30.19,30.03,9,2,15,0.01
2013-10-20,74.9,57.4,42.1,55.0,47.9,40.0,95,73,48,30.05,29.83,10,2,15,0.00
2013-10-21,73.9,63.6,54.9,64.0,56.7,50.0,91,79,63,30.05,29.84,8,2,13,0.00
2013-10-22,74.6,60.1,46.0,53.0,45.3,35.0,94,63,28,30.15,30.03,7,2,10,0.00
2013-10-23,81.1,61.5,44.6,50.0,44.1,41.0,88,58,25,30.13,30.02,7,1,9,0.00
2013-10-24,80.2,63.6,44.8,52.0,46.0,42.0,91,57,30,30.17,30.06,7,1,11,0.00
2013-10-25,76.7,63.3,48.4,60.0,53.5,46.0,94,72,49,30.25,30.12,7,1,14,0.00
2013-10-26,78.7,70.1,64.5,65.0,62.4,59.0,88,77,61,30.14,29.96,11,4,16,0.02
2013-10-27,68.9,63.4,56.7,63.0,59.3,55.0,96,87,74,30.06,29.93,6,1,10,0.70
2013-10-28,80.5,71.1,62.6,67.0,64.7,60.0,95,81,63,29.98,29.86,17,3,19,0.00
2013-10-29,81.5,74.6,70.7,69.0,67.2,65.0,86,78,61,29.96,29.85,12,4,18,0.08
2013-10-30,78.1,72.0,68.2,72.0,68.9,67.0,96,90,78,29.92,29.72,8,1,14,0.01
2013-10-31,78.0,68.7,52.6,68.0,52.0,35.0,96,61,21,29.84,29.64,9,1,16,0.01